GW2634 Weather Reports


time (UTC)temp
C
wind
direction
speed
KPH
gust
KPH
rain 1hr
cm
rain 24hr
cm
rain mn
cm
humidity
%
barometer
mb
20260505040046 12 163 4.8 14.5 0.00 0.00 0.00 79 1010.9
20260505034541 12 221 8.0 12.9 0.00 0.00 0.00 80 1010.8
20260505033042 12 173 6.4 12.9 0.00 0.00 0.00 80 1010.7
20260505031541 13 136 6.4 12.9 0.00 0.00 0.00 79 1010.7
20260505030041 13 187 8.0 12.9 0.00 0.00 0.00 78 1010.6
20260505024551 13 192 8.0 16.1 0.00 0.00 0.00 76 1010.6
20260505023044 14 150 8.0 16.1 0.00 0.00 0.00 75 1010.6
20260505021544 14 169 11.3 20.9 0.00 0.00 0.00 75 1010.7
20260505020041 14 200 8.0 17.7 0.00 0.00 0.00 75 1010.7
20260505014541 15 173 6.4 19.3 0.00 0.00 0.00 75 1010.9
20260505013046 15 179 12.9 22.5 0.00 0.00 0.00 74 1010.8
20260505011544 15 136 11.3 19.3 0.00 0.00 0.00 73 1011.0
20260505010053 15 189 11.3 19.3 0.00 0.00 0.00 73 1011.1
20260505004541 15 167 12.9 19.3 0.00 0.00 0.00 73 1011.1
20260505003041 16 198 8.0 16.1 0.00 0.00 0.00 70 1011.2
20260505001550 16 198 9.7 16.1 0.00 0.00 0.00 69 1011.2
20260505000049 16 174 8.0 16.1 0.00 0.00 0.00 67 1011.4
20260504234545 16 183 8.0 14.5 0.00 0.00 0.00 66 1011.4
20260504233100 16 188 11.3 17.7 0.00 0.00 0.00 64 1011.5
20260504231546 17 180 8.0 16.1 0.00 0.00 0.00 62 1011.5
20260504230052 17 171 9.7 14.5 0.00 0.00 0.00 63 1011.5
20260504224541 16 162 11.3 17.7 0.00 0.00 0.00 67 1011.7
20260504223048 16 131 11.3 17.7 0.00 0.00 0.00 67 1011.7
20260504221544 16 158 9.7 17.7 0.00 0.00 0.00 66 1011.8
20260504220044 17 176 12.9 19.3 0.00 0.00 0.00 63 1011.8
20260504214554 18 132 8.0 16.1 0.00 0.00 0.00 60 1011.9
20260504213041 19 206 9.7 16.1 0.00 0.00 0.00 56 1012.0
20260504211547 18 187 8.0 12.9 0.00 0.00 0.00 59 1012.0
20260504210104 20 163 3.2 11.3 0.00 0.00 0.00 59 1011.9
20260504204548 19 224 4.8 9.7 0.00 0.00 0.00 58 1012.0
20260504203100 18 131 4.8 9.7 0.00 0.00 0.00 60 1012.2
20260504201551 19 245 4.8 8.0 0.00 0.00 0.00 61 1012.2
20260504200042 18 231 3.2 8.0 0.00 0.00 0.00 60 1012.2
20260504194541 18 221 4.8 9.7 0.00 0.00 0.00 60 1012.2
20260504193049 17 171 6.4 9.7 0.00 0.00 0.00 63 1012.2
20260504191545 18 196 4.8 9.7 0.00 0.00 0.00 62 1012.3
20260504190106 18 178 6.4 9.7 0.00 0.00 0.00 60 1012.3
20260504184543 18 219 4.8 9.7 0.00 0.00 0.00 60 1012.3
20260504183042 19 207 3.2 6.4 0.00 0.00 0.00 59 1012.2
20260504181543 18 231 4.8 6.4 0.00 0.00 0.00 62 1012.2
20260504180047 18 162 3.2 8.0 0.00 0.00 0.00 63 1012.3
20260504174545 17 224 1.6 8.0 0.00 0.00 0.00 65 1012.3
20260504173043 16 164 3.2 8.0 0.00 0.00 0.00 66 1012.3
20260504171543 16 168 4.8 8.0 0.00 0.00 0.00 68 1012.4
20260504081547 13 0 0.0 3.2 0.00 0.00 0.00 67 1011.0
20260504044550 15 0 0.0 0.0 0.00 0.00 0.00 66 1011.0
20260504043052 15 0 0.0 0.0 0.00 0.00 0.00 65 1011.0
20260504041541 15 0 0.0 1.6 0.00 0.00 0.00 64 1010.8